Weather History for Sibu, Malaysia

Change the Weather History Date:

Thursday, May 1, 2014

  Actual Average Record
Temperature  
Mean Temperature 82 °F -  
Max Temperature 88 °F - - ()
Min Temperature 75 °F - - ()
Cooling Degree Days 16    
Growing Degree Days 32 (Base 50)    
Moisture  
Dew Point 75 °F    
Average Humidity 88    
Maximum Humidity 100    
Minimum Humidity 73    
Precipitation  
Precipitation 0.00 in - - ()
Sea Level Pressure  
Sea Level Pressure 29.82 in    
Wind  
Wind Speed 2 mph ()    
Max Wind Speed 7 mph    
Max Gust Speed -    
Visibility 8.0 miles    
Events Rain , Thunderstorm    
T = Trace of Precipitation, MM = Missing Value Source: Averaged Metar Reports

Daily Weather History Graph

Daily Weather History Graph

Search for Another Location

Airport:

Trip Planner

Search our weather history database for the weather conditions in past years. The results will help you decide how hot, cold, wet, or windy it might be!

Date:

Astronomy

May. 01, 2014 Rise Set
Actual Time 6:23 AM MYT 6:35 PM MYT
Civil Twilight 6:01 AM MYT 6:56 PM MYT
Nautical Twilight 5:37 AM MYT 7:21 PM MYT
Astronomical Twilight 5:12 AM MYT 7:46 PM MYT
Moon 7:54 AM MYT (5/1) 8:25 PM MYT (5/1)
Length of Visible Light 12h 54m
Length of Day
12h 11m
Waxing Crescent, 4% of the Moon is Illuminated
May 1
Waxing Crescent
May 7
First Quarter
May 15
Full
May 21
Last Quarter
May 29
New

Hourly Weather History & Observations

Time (MYT) Temp. Heat Index Dew Point Humidity Pressure Visibility Wind Dir Wind Speed Gust Speed Precip Events Conditions
12:00 AM 77.0 °F - 75.2 °F 94% 29.83 in 6.2 mi Calm Calm - N/A   Mostly Cloudy
1:00 AM 77.0 °F - 75.2 °F 94% 29.83 in 6.2 mi South 2.3 mph - N/A   Mostly Cloudy
2:00 AM 77 °F - 75 °F 91% 29.83 in 11 mi ESE 1.2 mph - -   Scattered Clouds
2:00 AM 77.0 °F - 75.2 °F 94% 29.83 in 6.2 mi ESE 1.2 mph - N/A   Mostly Cloudy
3:00 AM 77.0 °F - 75.2 °F 94% 29.80 in 6.2 mi Calm Calm - N/A   Mostly Cloudy
4:00 AM 77.0 °F - 75.2 °F 94% 29.80 in 6.2 mi SSE 1.2 mph - N/A   Mostly Cloudy
5:00 AM 77 °F - 75 °F 92% 29.82 in 11 mi ESE 1.2 mph - -   Partly Cloudy
5:00 AM 77.0 °F - 75.2 °F 94% 29.80 in 6.2 mi ESE 1.2 mph - N/A   Mostly Cloudy
6:00 AM 77.0 °F - 75.2 °F 94% 29.80 in 6.2 mi East 1.2 mph - N/A   Scattered Clouds
7:00 AM 77.0 °F - 75.2 °F 94% 29.83 in 6.2 mi South 2.3 mph - N/A   Mostly Cloudy
8:00 AM 79 °F - 76 °F 86% 29.87 in 19 mi East 3.5 mph - -   Scattered Clouds
8:00 AM 78.8 °F - 75.2 °F 89% 29.86 in 6.2 mi East 3.5 mph - N/A   Mostly Cloudy
9:00 AM 84.2 °F 92.3 °F 75.2 °F 74% 29.86 in 6.2 mi ESE 3.5 mph - N/A   Mostly Cloudy
10:00 AM 86.0 °F 96.9 °F 77.0 °F 74% 29.86 in 6.2 mi WNW 2.3 mph - N/A   Mostly Cloudy
11:00 AM 85 °F - 78 °F 73% 29.87 in 19 mi ENE 4.6 mph - -   Partly Cloudy
11:00 AM 86.0 °F 96.9 °F 77.0 °F 74% 29.86 in 6.2 mi ENE 4.6 mph - N/A   Mostly Cloudy
12:00 PM 86.0 °F 96.9 °F 77.0 °F 74% 29.83 in 6.2 mi West 6.9 mph - N/A Rain Light Rain Showers
1:00 PM 80.6 °F 87.1 °F 77.0 °F 89% 29.83 in 6.2 mi SW 3.5 mph - N/A Rain , Thunderstorm Light Thunderstorms and Rain
2:00 PM 81 °F - 76 °F 82% 29.81 in 9 mi East 5.8 mph - - Thunderstorm Thunderstorm
2:00 PM 80.6 °F 87.1 °F 77.0 °F 89% 29.80 in 6.2 mi East 5.8 mph - N/A Thunderstorm Thunderstorm
3:00 PM 78.8 °F - 73.4 °F 83% 29.77 in 6.2 mi East 3.5 mph - N/A   Mostly Cloudy
4:00 PM 78.8 °F - 75.2 °F 89% 29.74 in 6.2 mi East 3.5 mph - N/A   Mostly Cloudy
5:00 PM 79 °F - 75 °F 84% 29.76 in 19 mi SE 3.5 mph - -   Partly Cloudy
5:00 PM 78.8 °F - 75.2 °F 89% 29.74 in 6.2 mi SE 3.5 mph - N/A   Mostly Cloudy
6:00 PM 78.8 °F - 75.2 °F 89% 29.77 in 6.2 mi ESE 3.5 mph - N/A   Mostly Cloudy
7:00 PM 78.8 °F - 75.2 °F 89% 29.80 in 6.2 mi SE 3.5 mph - N/A   Mostly Cloudy
8:00 PM 77 °F - 74 °F 89% 29.81 in 11 mi East 3.5 mph - -   Partly Cloudy
8:00 PM 77.0 °F - 75.2 °F 94% 29.80 in 6.2 mi East 3.5 mph - N/A   Mostly Cloudy
9:00 PM 77.0 °F - 75.2 °F 94% 29.83 in 6.2 mi SE 4.6 mph - N/A   Mostly Cloudy
10:00 PM 77.0 °F - 75.2 °F 94% 29.86 in 6.2 mi SE 3.5 mph - N/A   Mostly Cloudy
11:00 PM 76 °F - 74 °F 93% 29.86 in 9 mi East 1.2 mph - -   Partly Cloudy
11:00 PM 75.2 °F - 75.2 °F 100% 29.83 in 6.2 mi East 1.2 mph - N/A   Mostly Cloudy